GW5315 Weather Reports


time (UTC)temp
C
wind
direction
speed
KPH
gust
KPH
rain 1hr
cm
rain 24hr
cm
rain mn
cm
humidity
%
barometer
mb
20260505001754 19 189 0.0 0.0 0.00 0.00 0.00 50 1015.7
20260505001252 20 190 0.0 0.0 0.00 0.00 0.00 48 1015.8
20260505000749 20 189 0.0 0.0 0.00 0.00 0.00 45 1015.3
20260505000246 21 189 1.6 1.6 0.00 0.00 0.00 43 1015.4
20260504235742 21 194 1.6 1.6 0.00 0.00 0.00 41 1015.3
20260504235239 21 180 0.0 1.6 0.00 0.00 0.00 40 1015.3
20260504234736 21 188 1.6 1.6 0.00 0.00 0.00 39 1015.3
20260504234228 22 194 0.0 0.0 0.00 0.00 0.00 40 1015.0
20260504233723 22 204 1.6 3.2 0.00 0.00 0.00 39 1014.9
20260504233219 22 201 3.2 3.2 0.00 0.00 0.00 37 1014.9
20260504232717 23 206 1.6 1.6 0.00 0.00 0.00 35 1015.0
20260504232213 23 238 1.6 3.2 0.00 0.00 0.00 34 1015.1
20260504231710 23 207 0.0 1.6 0.00 0.00 0.00 35 1014.7
20260504231207 23 192 3.2 3.2 0.00 0.00 0.00 33 1015.0
20260504230702 23 222 1.6 1.6 0.00 0.00 0.00 33 1014.8
20260504230202 23 259 3.2 3.2 0.00 0.00 0.00 34 1014.7
20260504225700 23 197 3.2 3.2 0.00 0.00 0.00 33 1014.8
20260504225155 24 227 6.4 8.0 0.00 0.00 0.00 32 1014.9
20260504224653 24 201 3.2 3.2 0.00 0.00 0.00 31 1015.0
20260504224149 25 222 3.2 4.8 0.00 0.00 0.00 32 1014.8
20260504223647 25 209 1.6 3.2 0.00 0.00 0.00 31 1014.9
20260504223142 25 247 8.0 11.3 0.00 0.00 0.00 31 1015.0
20260504222639 25 221 3.2 3.2 0.00 0.00 0.00 31 1015.1
20260504222136 24 184 6.4 9.7 0.00 0.00 0.00 32 1014.9
20260504221633 24 170 3.2 4.8 0.00 0.00 0.00 32 1014.9
20260504221130 25 190 4.8 4.8 0.00 0.00 0.00 31 1015.0
20260504220626 25 228 6.4 9.7 0.00 0.00 0.00 31 1015.1
20260504220125 25 250 8.0 9.7 0.00 0.00 0.00 30 1015.1
20260504215621 25 176 1.6 1.6 0.00 0.00 0.00 29 1015.1
20260504215118 25 217 4.8 4.8 0.00 0.00 0.00 30 1015.0
20260504214614 25 221 6.4 9.7 0.00 0.00 0.00 29 1015.0
20260504214110 25 251 3.2 4.8 0.00 0.00 0.00 28 1015.1
20260504213607 25 237 4.8 4.8 0.00 0.00 0.00 29 1015.2
20260504213104 25 238 11.3 12.9 0.00 0.00 0.00 28 1015.1
20260504212559 25 170 4.8 8.0 0.00 0.00 0.00 28 1015.2
20260504212057 26 160 8.0 11.3 0.00 0.00 0.00 27 1015.4
20260504211554 25 243 8.0 9.7 0.00 0.00 0.00 27 1015.0
20260504211051 25 246 3.2 3.2 0.00 0.00 0.00 29 1015.3
20260504210548 25 232 6.4 8.0 0.00 0.00 0.00 28 1015.4
20260504210044 25 204 3.2 3.2 0.00 0.00 0.00 29 1015.1
20260504205542 25 226 4.8 4.8 0.00 0.00 0.00 29 1015.0
20260504205040 25 199 3.2 3.2 0.00 0.00 0.00 28 1015.2
20260504204538 26 242 3.2 4.8 0.00 0.00 0.00 29 1015.3
20260504204037 25 204 4.8 8.0 0.00 0.00 0.00 31 1015.4
20260504203534 25 198 3.2 3.2 0.00 0.00 0.00 31 1015.4
20260504203032 25 276 3.2 3.2 0.00 0.00 0.00 33 1015.6
20260504202527 25 210 11.3 14.5 0.00 0.00 0.00 32 1015.7
20260504202024 25 211 4.8 8.0 0.00 0.00 0.00 34 1015.8
20260504201521 25 211 8.0 9.7 0.00 0.00 0.00 33 1015.6
20260504201019 25 276 4.8 9.7 0.00 0.00 0.00 32 1015.3
20260504200515 25 184 8.0 9.7 0.00 0.00 0.00 33 1015.8
20260504200012 25 220 1.6 1.6 0.00 0.00 0.00 33 1015.7
20260504195508 26 247 9.7 11.3 0.00 0.00 0.00 33 1015.9
20260504195005 25 191 3.2 4.8 0.00 0.00 0.00 36 1015.8
20260504194501 25 162 11.3 11.3 0.00 0.00 0.00 32 1015.9
20260504193956 25 246 8.0 9.7 0.00 0.00 0.00 32 1015.9
20260504193454 25 212 3.2 3.2 0.00 0.00 0.00 32 1016.2
20260504192953 25 329 6.4 9.7 0.00 0.00 0.00 31 1016.2
20260504192449 25 155 1.6 3.2 0.00 0.00 0.00 32 1016.3
20260504191948 25 222 8.0 11.3 0.00 0.00 0.00 32 1016.5
20260504191446 25 161 11.3 11.3 0.00 0.00 0.00 30 1016.3
20260504190941 25 222 3.2 4.8 0.00 0.00 0.00 33 1016.2
20260504190437 25 239 6.4 8.0 0.00 0.00 0.00 32 1016.5
20260504185934 25 203 3.2 3.2 0.00 0.00 0.00 34 1016.5
20260504185431 25 214 3.2 3.2 0.00 0.00 0.00 40 1016.4
20260504184927 24 294 1.6 3.2 0.00 0.00 0.00 32 1016.7
20260504184423 25 215 6.4 8.0 0.00 0.00 0.00 32 1016.7
20260504183919 24 142 3.2 3.2 0.00 0.00 0.00 33 1016.6
20260504183416 24 303 6.4 8.0 0.00 0.00 0.00 31 1016.9
20260504182914 24 193 1.6 3.2 0.00 0.00 0.00 32 1016.8
20260504182411 25 224 6.4 8.0 0.00 0.00 0.00 37 1016.9
20260504181908 24 311 4.8 4.8 0.00 0.00 0.00 36 1016.9
20260504181405 24 337 6.4 8.0 0.00 0.00 0.00 32 1017.1
20260504180904 24 108 1.6 3.2 0.00 0.00 0.00 32 1016.9
20260504180402 24 192 4.8 8.0 0.00 0.00 0.00 32 1017.2
20260504175900 23 217 8.0 9.7 0.00 0.00 0.00 34 1017.1
20260504175356 23 237 8.0 9.7 0.00 0.00 0.00 34 1017.0
20260504174854 24 260 1.6 3.2 0.00 0.00 0.00 36 1017.0
20260504174352 23 276 4.8 4.8 0.00 0.00 0.00 36 1017.2
20260504173849 23 296 6.4 9.7 0.00 0.00 0.00 36 1017.3
20260504173345 23 230 3.2 3.2 0.00 0.00 0.00 37 1017.5
20260504172842 23 268 6.4 8.0 0.00 0.00 0.00 36 1017.6
20260504172339 23 166 4.8 4.8 0.00 0.00 0.00 38 1017.3
20260504171835 24 319 1.6 3.2 0.00 0.00 0.00 36 1017.7
20260504171332 23 182 4.8 8.0 0.00 0.00 0.00 39 1017.4
20260504170829 22 261 4.8 4.8 0.00 0.00 0.00 37 1017.7
20260504170326 23 247 3.2 8.0 0.00 0.00 0.00 39 1017.8
20260504160244 21 300 4.8 4.8 0.00 0.00 0.00 39 1018.8
20260504150710 20 329 3.2 8.0 0.00 0.00 0.00 44 1019.3
20260504150207 21 160 3.2 3.2 0.00 0.00 0.00 46 1019.3
20260504141136 18 166 1.6 3.2 0.00 0.00 0.00 62 1019.3
20260504140632 17 172 1.6 1.6 0.00 0.00 0.00 60 1019.0
20260504140128 17 190 3.2 3.2 0.00 0.00 0.00 62 1019.1
20260504130556 13 183 0.0 0.0 0.00 0.00 0.00 71 1019.2
20260504110438 5 196 0.0 0.0 0.00 0.00 0.00 98 1018.9
20260504100401 6 209 0.0 0.0 0.00 0.00 0.00 98 1018.4
20260504081748 6 173 0.0 0.0 0.00 0.00 0.00 94 1018.1
20260504081245 7 203 0.0 0.0 0.00 0.00 0.00 94 1018.2
20260504080741 7 203 0.0 0.0 0.00 0.00 0.00 94 1018.0
20260504080238 7 203 0.0 0.0 0.00 0.00 0.00 94 1017.9
20260504070205 7 201 0.0 0.0 0.00 0.00 0.00 90 1018.0
20260504060126 9 201 0.0 0.0 0.00 0.00 0.00 86 1018.6
20260504050554 10 197 0.0 0.0 0.00 0.00 0.00 84 1018.4
20260504045548 10 197 0.0 0.0 0.00 0.00 0.00 83 1018.5
20260504045043 10 198 0.0 0.0 0.00 0.00 0.00 81 1018.4
20260504044541 10 197 0.0 0.0 0.00 0.00 0.00 81 1018.2
20260504044038 10 197 0.0 0.0 0.00 0.00 0.00 78 1018.3
20260504043535 10 207 0.0 0.0 0.00 0.00 0.00 79 1018.5
20260504043032 10 202 0.0 0.0 0.00 0.00 0.00 78 1018.3
20260504042529 10 198 0.0 0.0 0.00 0.00 0.00 81 1018.5
20260504042026 10 194 0.0 0.0 0.00 0.00 0.00 82 1018.6
20260504041522 10 195 0.0 0.0 0.00 0.00 0.00 82 1018.6
20260504041018 10 195 0.0 0.0 0.00 0.00 0.00 82 1018.6
20260504040516 10 196 0.0 0.0 0.00 0.00 0.00 81 1018.6
20260504040012 10 196 0.0 0.0 0.00 0.00 0.00 80 1018.7
20260504035509 10 196 0.0 0.0 0.00 0.00 0.00 79 1018.9
20260504035005 10 196 0.0 0.0 0.00 0.00 0.00 78 1018.8
20260504034503 10 196 0.0 0.0 0.00 0.00 0.00 78 1018.5
20260504034000 10 194 0.0 0.0 0.00 0.00 0.00 78 1018.7
20260504033458 10 194 0.0 0.0 0.00 0.00 0.00 77 1018.7
20260504032955 10 194 0.0 0.0 0.00 0.00 0.00 76 1018.8
20260504032452 10 195 0.0 0.0 0.00 0.00 0.00 76 1018.7
20260504031948 10 195 0.0 0.0 0.00 0.00 0.00 76 1018.6
20260504031445 11 198 0.0 0.0 0.00 0.00 0.00 75 1018.7
20260504030942 11 190 0.0 0.0 0.00 0.00 0.00 75 1018.6
20260504030439 11 189 0.0 0.0 0.00 0.00 0.00 74 1018.5
20260504025935 11 189 0.0 0.0 0.00 0.00 0.00 73 1018.8
20260504025432 11 190 0.0 0.0 0.00 0.00 0.00 72 1018.7
20260504024929 11 190 0.0 0.0 0.00 0.00 0.00 73 1018.7
20260504024426 11 189 0.0 0.0 0.00 0.00 0.00 72 1018.6
20260504023923 11 190 0.0 0.0 0.00 0.00 0.00 72 1018.6
20260504023419 11 189 0.0 0.0 0.00 0.00 0.00 72 1018.5
20260504022915 11 189 0.0 0.0 0.00 0.00 0.00 71 1018.3
20260504022412 11 189 0.0 0.0 0.00 0.00 0.00 71 1018.7
20260504021908 11 190 0.0 0.0 0.00 0.00 0.00 70 1018.2
20260504021405 11 189 0.0 0.0 0.00 0.00 0.00 70 1018.3
20260504020729 12 189 0.0 0.0 0.00 0.00 0.00 69 1018.1
20260504020226 12 189 0.0 0.0 0.00 0.00 0.00 69 1018.1
20260504015722 12 189 0.0 0.0 0.00 0.00 0.00 68 1018.3
20260504015219 12 189 0.0 0.0 0.00 0.00 0.00 70 1017.9
20260504014714 12 189 0.0 0.0 0.00 0.00 0.00 68 1017.9
20260504014211 12 189 0.0 0.0 0.00 0.00 0.00 67 1018.0
20260504013709 12 190 0.0 0.0 0.00 0.00 0.00 67 1017.6
20260504013206 12 190 0.0 0.0 0.00 0.00 0.00 67 1017.7
20260504012703 12 190 0.0 0.0 0.00 0.00 0.00 66 1017.6
20260504012201 12 189 0.0 0.0 0.00 0.00 0.00 66 1017.7
20260504011658 12 189 0.0 0.0 0.00 0.00 0.00 64 1017.7
20260504011154 12 190 0.0 1.6 0.00 0.00 0.00 64 1017.8
20260504010650 12 190 0.0 1.6 0.00 0.00 0.00 63 1017.5
20260504010145 13 190 1.6 1.6 0.00 0.00 0.00 63 1017.5
20260504005643 13 189 1.6 1.6 0.00 0.00 0.00 62 1017.5
20260504005139 13 189 0.0 1.6 0.00 0.00 0.00 60 1017.6
20260504004638 13 189 0.0 1.6 0.00 0.00 0.00 60 1017.3
20260504004134 14 189 1.6 1.6 0.00 0.00 0.00 58 1017.5
20260504003631 14 192 0.0 0.0 0.00 0.00 0.00 57 1017.5
20260504003128 15 198 1.6 1.6 0.00 0.00 0.00 56 1017.5
20260504002624 15 189 0.0 1.6 0.00 0.00 0.00 56 1017.3